Location: Harmony
(28.2000°N, 81.1500°W)
Time: 23:05:04
(UTC-04:00)

Cosmos 2360 Rocket - Pass Details

Date: 18 December 2017
Orbit: 835 x 843 km, 71.0° (Epoch: 26 April)

Event Time Altitude Azimuth Distance (km) Brightness Sun altitude
Rises 18:33:56 0° 148° (SSE) 3,375 5.2 -13.4°
Reaches altitude 10° 18:38:15 10° 117° (ESE) 2,448 4.2 -14.3°
Enters shadow 18:38:36 11° 113° (ESE) 2,411 4.1 -14.4°
